Branson West Muni - Emerson F, MO

7:02 AM CDT on May 26, 2017 (GMT -0500)
Branson West Muni - Emerson F

Weather History for KFWB - May, 2014

Change the Weather History Date:

Thursday, May 15, 2014

  Actual Average (KSGF) Record (KSGF)
Temperature  
Mean Temperature 50 °F -  
Max Temperature 62 °F 74 °F 87 °F (1957)
Min Temperature 39 °F 51 °F 35 °F (1907)
Degree Days  
Heating Degree Days 14    
Moisture  
Dew Point 38 °F    
Average Humidity 68    
Maximum Humidity 100    
Minimum Humidity 31    
Precipitation  
Precipitation 0.00 in - - ()
Sea Level Pressure  
Sea Level Pressure 30.13 in    
Wind  
Wind Speed 4 mph (WNW)    
Max Wind Speed 21 mph    
Max Gust Speed 31 mph    
Visibility 9 miles    
Events Fog , Thunderstorm    
Averages and records for this station are not official NWS values.
T = Trace of Precipitation, MM = Missing Value Source: NWS Daily Summary

Daily Weather History Graph

Daily Weather History Graph

Search for Another Location

Airport or City:

Trip Planner

Search our weather history database for the weather conditions in past years. The results will help you decide how hot, cold, wet, or windy it might be!

Date:

Astronomy

May. 15, 2014 Rise Set
Actual Time 6:06 AM CDT 8:14 PM CDT
Civil Twilight 5:37 AM CDT 8:43 PM CDT
Nautical Twilight 5:02 AM CDT 9:18 PM CDT
Astronomical Twilight 4:24 AM CDT 9:56 PM CDT
Moon 9:22 PM CDT (5/15) 6:53 AM CDT (5/15)
Length of Visible Light 15h 05m
Length of Day
14h 07m
Full, 99% of the Moon is Illuminated
May 15
Full
May 21
Last Quarter
May 28
New
Jun 5
First Quarter
Jun 12
Full

Hourly Weather History & Observations

Time (CDT) Temp. Windchill Dew Point Humidity Pressure Visibility Wind Dir Wind Speed Gust Speed Precip Events Conditions
12:15 AM 42.8 °F - 42.8 °F 100% 30.16 in 0.2 mi Calm Calm - N/A Fog Fog
12:55 AM 42.8 °F - 42.8 °F 100% 30.15 in 3.0 mi Calm Calm - N/A   Clear
1:15 AM 42.8 °F - 42.8 °F 100% 30.15 in 3.0 mi Calm Calm - N/A   Clear
1:35 AM 41.0 °F 38.0 °F 41.0 °F 100% 30.14 in 10.0 mi West 4.6 mph - N/A   Clear
1:55 AM 41.0 °F - 41.0 °F 100% 30.14 in 10.0 mi Calm Calm - N/A   Clear
2:15 AM 41.0 °F - 41.0 °F 100% 30.13 in 4.0 mi Calm Calm - N/A   Clear
2:35 AM 41.0 °F 39.0 °F 41.0 °F 100% 30.13 in 7.0 mi West 3.5 mph - N/A   Clear
2:55 AM 41.0 °F - 39.2 °F 93% 30.13 in 7.0 mi Calm Calm - N/A   Clear
3:15 AM 39.2 °F - 39.2 °F 100% 30.12 in 2.5 mi Calm Calm - N/A   Clear
3:35 AM 39.2 °F - 39.2 °F 100% 30.12 in 1.5 mi Calm Calm - N/A   Clear
3:55 AM 39.2 °F - 39.2 °F 100% 30.12 in 5.0 mi Calm Calm - N/A   Clear
4:15 AM 39.2 °F - 39.2 °F 100% 30.11 in 3.0 mi Calm Calm - N/A   Clear
4:35 AM 39.2 °F 37.0 °F 39.2 °F 100% 30.12 in 1.0 mi West 3.5 mph - N/A   Clear
5:15 AM 39.2 °F - 39.2 °F 100% 30.13 in 8.0 mi Calm Calm - N/A   Overcast
5:35 AM 39.2 °F - 39.2 °F 100% 30.12 in 5.0 mi Calm Calm - N/A   Overcast
5:55 AM 41.0 °F - 41.0 °F 100% 30.13 in 10.0 mi Calm Calm - N/A   Overcast
6:15 AM 41.0 °F 39.0 °F 41.0 °F 100% 30.13 in 5.0 mi WSW 3.5 mph - N/A   Overcast
6:35 AM 41.0 °F - 41.0 °F 100% 30.14 in 9.0 mi Calm Calm - N/A   Overcast
6:55 AM 41.0 °F - 41.0 °F 100% 30.14 in 7.0 mi Calm Calm - N/A   Overcast
7:15 AM 44.6 °F 41.4 °F 44.6 °F 100% 30.15 in 8.0 mi SW 5.8 mph - N/A   Overcast
7:35 AM 44.6 °F 41.4 °F 44.6 °F 100% 30.14 in 10.0 mi SW 5.8 mph - N/A   Mostly Cloudy
7:55 AM 44.6 °F 42.2 °F 44.6 °F 100% 30.14 in 10.0 mi SW 4.6 mph - N/A   Mostly Cloudy
8:15 AM 48.2 °F - 44.6 °F 87% 30.14 in 10.0 mi SW 5.8 mph - N/A   Mostly Cloudy
8:35 AM 48.2 °F - 44.6 °F 87% 30.14 in 10.0 mi SW 6.9 mph - N/A   Partly Cloudy
8:55 AM 50.0 °F - 44.6 °F 82% 30.14 in 10.0 mi SSW 6.9 mph - N/A   Clear
9:15 AM 51.8 °F - 46.4 °F 82% 30.14 in 10.0 mi SW 9.2 mph - N/A   Partly Cloudy
9:35 AM 53.6 °F - 46.4 °F 77% 30.14 in 10.0 mi WSW 10.4 mph - N/A   Partly Cloudy
9:55 AM 53.6 °F - 46.4 °F 77% 30.14 in 10.0 mi SW 8.1 mph - N/A   Clear
10:15 AM 55.4 °F - 48.2 °F 77% 30.14 in 10.0 mi SW 5.8 mph - N/A   Clear
10:35 AM 57.2 °F - 46.4 °F 67% 30.14 in 10.0 mi WNW 10.4 mph - N/A   Partly Cloudy
10:55 AM 57.2 °F - 46.4 °F 67% 30.14 in 10.0 mi WNW 4.6 mph - N/A   Partly Cloudy
11:15 AM 59.0 °F - 44.6 °F 59% 30.14 in 10.0 mi WNW 8.1 mph - N/A   Clear
11:35 AM 59.0 °F - 44.6 °F 59% 30.14 in 10.0 mi West 9.2 mph - N/A   Partly Cloudy
11:55 AM 60.8 °F - 44.6 °F 55% 30.14 in 10.0 mi NW 13.8 mph 23.0 mph N/A   Scattered Clouds
12:15 PM 60.8 °F - 42.8 °F 52% 30.14 in 10.0 mi West 8.1 mph 20.7 mph N/A   Scattered Clouds
12:35 PM 60.8 °F - 41.0 °F 48% 30.14 in 10.0 mi WNW 8.1 mph 19.6 mph N/A   Scattered Clouds
12:55 PM 60.8 °F - 42.8 °F 52% 30.13 in 10.0 mi WNW 11.5 mph 19.6 mph N/A   Scattered Clouds
1:15 PM 60.8 °F - 41.0 °F 48% 30.13 in 10.0 mi NW 13.8 mph 24.2 mph N/A   Partly Cloudy
2:15 PM 60.8 °F - 41.0 °F 48% 30.12 in 10.0 mi WNW 10.4 mph 25.3 mph N/A   Partly Cloudy
2:35 PM 62.6 °F - 41.0 °F 45% 30.11 in 10.0 mi WNW 13.8 mph 25.3 mph N/A   Partly Cloudy
2:55 PM 62.6 °F - 39.2 °F 42% 30.11 in 10.0 mi NW 13.8 mph 21.9 mph N/A   Scattered Clouds
3:15 PM 62.6 °F - 37.4 °F 39% 30.11 in 10.0 mi NW 20.7 mph 31.1 mph N/A   Partly Cloudy
3:35 PM 60.8 °F - 35.6 °F 39% 30.11 in 10.0 mi WNW 18.4 mph 26.5 mph N/A Thunderstorm Partly Cloudy
3:55 PM 60.8 °F - 32.0 °F 34% 30.10 in 10.0 mi West 17.3 mph 24.2 mph N/A   Clear
4:15 PM 60.8 °F - 32.0 °F 34% 30.09 in 10.0 mi WNW 10.4 mph 20.7 mph N/A   Clear
4:35 PM 60.8 °F - 32.0 °F 34% 30.09 in 10.0 mi NW 11.5 mph 20.7 mph N/A   Clear
4:55 PM 60.8 °F - 32.0 °F 34% 30.10 in 10.0 mi NW 17.3 mph 26.5 mph N/A   Clear
5:15 PM 59.0 °F - 28.4 °F 31% 30.10 in 10.0 mi WNW 11.5 mph 21.9 mph N/A   Clear
5:35 PM 59.0 °F - 28.4 °F 31% 30.10 in 10.0 mi NW 18.4 mph 24.2 mph N/A   Clear
5:55 PM 57.2 °F - 28.4 °F 33% 30.10 in 10.0 mi NNW 9.2 mph 20.7 mph N/A   Clear
6:15 PM 59.0 °F - 28.4 °F 31% 30.10 in 10.0 mi NW 12.7 mph 19.6 mph N/A Thunderstorm Clear
6:35 PM 57.2 °F - 28.4 °F 33% 30.10 in 10.0 mi WNW 10.4 mph 17.3 mph N/A   Clear
6:55 PM 57.2 °F - 26.6 °F 31% 30.11 in 10.0 mi NW 12.7 mph 24.2 mph N/A   Clear
7:15 PM - - - N/A% 30.11 in 10.0 mi NW 11.5 mph 19.6 mph N/A   Unknown
7:35 PM 55.4 °F - 28.4 °F 36% 30.13 in 10.0 mi NNW 6.9 mph - N/A   Clear
7:55 PM 55.4 °F - 28.4 °F 36% 30.13 in 10.0 mi NW 8.1 mph - N/A   Clear
8:15 PM 53.6 °F - 28.4 °F 38% 30.14 in 10.0 mi NW 3.5 mph - N/A   Clear
8:35 PM 53.6 °F - 28.4 °F 38% 30.14 in 10.0 mi Calm Calm - N/A   Clear
8:55 PM 51.8 °F - 30.2 °F 44% 30.14 in 10.0 mi Calm Calm - N/A   Clear
9:15 PM 48.2 °F - 32.0 °F 54% 30.14 in 10.0 mi Calm Calm - N/A   Clear
9:35 PM 46.4 °F - 32.0 °F 57% 30.14 in 10.0 mi Calm Calm - N/A   Clear
9:55 PM 46.4 °F - 33.8 °F 62% 30.15 in 10.0 mi Calm Calm - N/A   Clear
10:15 PM 46.4 °F - 33.8 °F 62% 30.15 in 10.0 mi Calm Calm - N/A   Clear
10:35 PM 44.6 °F - 33.8 °F 66% 30.15 in 10.0 mi Calm Calm - N/A   Clear
10:55 PM 44.6 °F - 33.8 °F 66% 30.15 in 10.0 mi Calm Calm - N/A   Clear
11:15 PM 44.6 °F - 35.6 °F 71% 30.14 in 10.0 mi Calm Calm - N/A   Clear
11:35 PM 44.6 °F - 33.8 °F 66% 30.14 in 10.0 mi Calm Calm - N/A   Clear
11:55 PM 44.6 °F - 32.0 °F 61% 30.14 in 10.0 mi Calm Calm - N/A   Clear